Location: Newark
(48.4472°N, 1.4892°E)
Time: 02:53:24
(UTC+00:00)

Transit 4A - Pass Details

Date: 29 November 2019
Orbit: 870 x 975 km, 66.8° (Epoch: 05 December)

Event Time Altitude Azimuth Distance (km) Brightness Sun altitude
Exits shadow 05:10:59 35° 247° (WSW) 1,377 8.4 -20.9°
Drops below altitude 10° 05:16:07 10° 184° (S) 2,509 10.2 -20.1°
Sets 05:18:45 0° 176° (S) 3,442 11.1 -19.7°
